{"data":{"norad_id":69006,"intl_designator":"2026-100AC","name":"JEN-1","alt_names":[],"object_type":"PAYLOAD","status":"ACTIVE","operator":null,"country":"UK","launch_date":"2026-05-03","launch_site_code":"AFWTR","launch_vehicle":null,"mission":null,"orbit_class":"UNKNOWN","rcs_meters":null,"size_class":null,"mass_kg":null,"dimensions":null,"purposes":[],"wikipedia_slug":null,"has_3d_model":false,"image_url":null,"decayed_at":null,"tle_current":{"epoch":"2026-05-25T04:34:44.801184Z","epoch_age_seconds":72742,"freshness":"FRESH","line1":"1 69006U 26100AC  26145.19079631  .00004746  00000+0  22363-3 0  9993","line2":"2 69006  97.4074  43.4199 0006054  89.8121 270.3808 15.19970467  3312","mean_motion":15.19970467,"eccentricity":0.0006054,"inclination_deg":97.4074,"raan_deg":43.4199,"arg_perigee_deg":89.8121,"mean_anomaly_deg":270.3808,"bstar":0.00022363,"rev_number":331,"period_min":94.738682840474,"perigee_km":501.76216979998,"apogee_km":510.09739786184,"semimajor_km":6884.0667838309,"source":"CELESTRAK","updated_at":"2026-05-25T13:38:09.038256Z"}}}